QPF
0.00 0.00 0.00 0.01 0.01 0.02 0.02 0.02 0.02 0.03 0.05 0.05 0.04 0.02 0.03 0.04 0.06 0.05 0.03 0.03 0.02 0.02 0.00 0.00 0.00 0.00 0.00 0.00 0.00 0.00 0.00 0.01 0.03 0.10 0.12 0.05 0.01 0.00 0.00 0.00 0.00 0.00 0.00 0.00 0.00 0.00 0.00 0.00 0.00 0.00 0.00 0.00 0.00 0.00
0.01 0.00 0.01 0.01 0.02 0.01 0.00 0.00 0.02 0.04 0.05 0.06 0.01 0.01 0.02 0.01 0.03 0.05 0.02 0.03 0.03 0.02 0.00 0.00 0.00 0.00 0.00 0.00 0.00 0.00 0.00 0.00 0.02 0.03 0.05 0.07 0.10 0.06 0.02 0.01 0.00 0.00 0.00 0.00 0.00 0.00 0.00 0.00 0.00 0.00 0.00 0.00 0.00 0.00
0.01 0.01 0.01 0.02 0.02 0.01 0.02 0.03 0.03 0.02 0.04 0.03 0.00 0.01 0.02 0.02 0.02 0.02 0.03 0.01 0.01 0.01 0.00 0.00 0.00 0.00 0.00 0.00 0.00 0.00 0.00 0.00 0.02 0.01 0.02 0.05 0.06 0.08 0.09 0.05 0.03 0.00 0.00 0.00 0.00 0.00 0.00 0.00 0.00 0.00 0.00 0.00 0.00 0.00
0.01 0.01 0.02 0.03 0.03 0.03 0.02 0.01 0.02 0.02 0.01 0.00 0.00 0.01 0.01 0.00 0.01 0.02 0.03 0.03 0.02 0.02 0.00 0.00 0.00 0.00 0.00 0.00 0.00 0.00 0.00 0.01 0.02 0.01 0.02 0.05 0.06 0.03 0.05 0.05 0.07 0.04 0.00 0.00 0.00 0.00 0.00 0.00 0.00 0.01 0.01 0.01 0.00 0.00
0.01 0.02 0.02 0.02 0.01 0.00 0.00 0.01 0.01 0.00 0.00 0.00 0.00 0.01 0.01 0.01 0.02 0.02 0.02 0.01 0.01 0.02 0.00 0.00 0.00 0.00 0.00 0.00 0.00 0.00 0.00 0.00 0.00 0.00 0.02 0.02 0.01 0.03 0.03 0.04 0.05 0.02 0.02 0.00 0.00 0.00 0.00 0.01 0.01 0.02 0.03 0.02 0.03 0.03
0.02 0.01 0.01 0.01 0.01 0.01 0.00 0.00 0.00 0.00 0.00 0.00 0.00 0.01 0.01 0.01 0.01 0.01 0.00 0.00 0.00 0.01 0.01 0.01 0.01 0.01 0.00 0.00 0.00 0.00 0.00 0.00 0.00 0.00 0.00 0.00 0.00 0.02 0.04 0.03 0.01 0.02 0.03 0.01 0.00 0.00 0.01 0.01 0.00 0.00 0.01 0.01 0.02 0.03
0.01 0.01 0.00 0.00 0.00 0.01 0.00 0.00 0.00 0.00 0.00 0.00 0.00 0.01 0.00 0.00 0.01 0.01 0.00 0.00 0.00 0.01 0.01 0.02 0.05 0.02 0.01 0.00 0.00 0.00 0.00 0.00 0.00 0.00 0.00 0.01 0.01 0.00 0.01 0.01 0.01 0.03 0.03 0.01 0.01 0.01 0.01 0.00 0.00 0.00 0.00 0.00 0.00 0.00
0.00 0.00 0.00 0.00 0.00 0.00 0.00 0.00 0.00 0.00 0.00 0.00 0.00 0.00 0.00 0.00 0.00 0.00 0.00 0.00 0.00 0.01 0.00 0.02 0.04 0.06 0.00 0.00 0.00 0.00 0.00 0.00 0.00 0.00 0.02 0.02 0.01 0.00 0.01 0.01 0.01 0.02 0.02 0.00 0.00 0.01 0.02 0.00 0.00 0.00 0.00 0.00 0.00 0.00
0.00 0.00 0.00 0.00 0.00 0.00 0.00 0.00 0.00 0.00 0.00 0.00 0.00 0.00 0.00 0.00 0.00 0.00 0.00 0.00 0.00 0.00 0.00 0.00 0.01 0.08 0.00 0.00 0.00 0.00 0.00 0.00 0.01 0.05 0.05 0.02 0.01 0.01 0.02 0.00 0.00 0.00 0.01 0.01 0.01 0.00 0.00 0.00 0.00 0.00 0.00 0.00 0.00 0.00
0.00 0.00 0.00 0.00 0.00 0.01 0.01 0.00 0.00 0.00 0.00 0.00 0.00 0.00 0.01 0.00 0.00 0.00 0.00 0.00 0.00 0.00 0.01 0.00 0.00 0.00 0.01 0.00 0.00 0.00 0.00 0.01 0.06 0.06 0.03 0.00 0.01 0.02 0.02 0.01 0.01 0.00 0.01 0.00 0.00 0.00 0.00 0.00 0.00 0.00 0.00 0.00 0.00 0.00
0.00 0.00 0.00 0.01 0.01 0.00 0.00 0.00 0.00 0.00 0.00 0.00 0.00 0.00 0.00 0.00 0.00 0.00 0.00 0.00 0.00 0.01 0.01 0.01 0.00 0.00 0.00 0.01 0.01 0.00 0.00 0.00 0.04 0.05 0.04 0.01 0.00 0.02 0.03 0.01 0.02 0.02 0.00 0.00 0.00 0.00 0.00 0.00 0.00 0.00 0.00 0.00 0.00 0.00
0.00 0.00 0.00 0.00 0.00 0.00 0.00 0.00 0.00 0.00 0.00 0.00 0.00 0.00 0.00 0.00 0.00 0.00 0.01 0.01 0.01 0.01 0.00 0.01 0.01 0.01 0.00 0.00 0.00 0.00 0.00 0.02 0.06 0.10 0.04 0.01 0.01 0.03 0.03 0.02 0.01 0.01 0.00 0.00 0.00 0.00 0.00 0.00 0.00 0.00 0.00 0.00 0.00 0.00
0.00 0.00 0.00 0.00 0.00 0.00 0.00 0.00 0.00 0.00 0.00 0.00 0.00 0.00 0.00 0.00 0.01 0.03 0.05 0.06 0.04 0.01 0.00 0.00 0.00 0.00 0.00 0.00 0.00 0.00 0.03 0.07 0.07 0.01 0.00 0.02 0.03 0.02 0.01 0.00 0.00 0.00 0.00 0.00 0.00 0.00 0.00 0.00 0.00 0.00 0.00 0.00 0.00 0.00
0.00 0.00 0.00 0.00 0.00 0.00 0.00 0.00 0.00 0.00 0.00 0.00 0.00 0.00 0.00 0.00 0.01 0.02 0.02 0.01 0.01 0.00 0.00 0.00 0.00 0.00 0.00 0.00 0.00 0.02 0.04 0.03 0.04 0.00 0.01 0.03 0.01 0.00 0.00 0.00 0.00 0.00 0.00 0.00 0.00 0.00 0.00 0.00 0.00 0.00 0.00 0.00 0.00 0.00
0.00 0.00 0.00 0.00 0.00 0.00 0.00 0.00 0.00 0.00 0.00 0.00 0.00 0.00 0.00 0.00 0.01 0.00 0.00 0.00 0.00 0.00 0.00 0.00 0.00 0.00 0.00 0.01 0.02 0.03 0.01 0.00 0.01 0.01 0.02 0.00 0.00 0.00 0.00 0.00 0.00 0.00 0.00 0.00 0.00 0.00 0.00 0.00 0.00 0.00 0.00 0.00 0.00 0.00
0.00 0.00 0.00 0.00 0.00 0.00 0.00 0.00 0.00 0.00 0.00 0.00 0.01 0.01 0.00 0.00 0.00 0.00 0.00 0.00 0.00 0.00 0.00 0.00 0.00 0.00 0.01 0.03 0.02 0.01 0.00 0.02 0.02 0.01 0.01 0.01 0.00 0.01 0.00 0.00 0.00 0.00 0.00 0.00 0.00 0.00 0.00 0.00 0.00 0.00 0.00 0.00 0.00 0.00
0.00 0.00 0.00 0.00 0.00 0.00 0.00 0.00 0.00 0.00 0.00 0.02 0.02 0.00 0.00 0.00 0.00 0.00 0.00 0.00 0.00 0.00 0.00 0.00 0.00 0.00 0.01 0.01 0.01 0.01 0.01 0.02 0.03 0.02 0.02 0.02 0.01 0.00 0.00 0.00 0.00 0.00 0.00 0.00 0.00 0.00 0.00 0.00 0.00 0.00 0.00 0.00 0.00 0.00
0.00 0.00 0.00 0.00 0.00 0.00 0.00 0.00 0.00 0.00 0.00 0.00 0.00 0.00 0.00 0.00 0.00 0.00 0.00 0.00 0.00 0.00 0.00 0.00 0.00 0.00 0.01 0.02 0.02 0.01 0.01 0.02 0.03 0.03 0.01 0.01 0.00 0.00 0.00 0.00 0.00 0.00 0.00 0.00 0.00 0.00 0.00 0.00 0.00 0.00 0.00 0.00 0.00 0.00
0.00 0.00 0.00 0.00 0.00 0.00 0.00 0.00 0.00 0.00 0.00 0.00 0.00 0.00 0.00 0.00 0.00 0.00 0.00 0.00 0.00 0.00 0.00 0.00 0.00 0.01 0.03 0.04 0.04 0.04 0.03 0.03 0.04 0.01 0.00 0.01 0.00 0.00 0.01 0.02 0.02 0.02 0.03 0.01 0.00 0.00 0.00 0.00 0.00 0.00 0.00 0.00 0.00 0.00
0.00 0.00 0.00 0.00 0.00 0.00 0.00 0.00 0.00 0.00 0.00 0.00 0.00 0.00 0.00 0.00 0.00 0.00 0.00 0.00 0.00 0.00 0.00 0.00 0.01 0.03 0.03 0.01 0.00 0.01 0.02 0.01 0.01 0.01 0.01 0.02 0.02 0.02 0.02 0.01 0.01 0.00 0.00 0.00 0.00 0.00 0.00 0.00 0.00 0.00 0.00 0.00 0.00 0.00
0.00 0.00 0.00 0.00 0.00 0.00 0.00 0.00 0.00 0.00 0.00 0.00 0.00 0.00 0.00 0.00 0.00 0.00 0.00 0.00 0.00 0.00 0.01 0.01 0.00 0.00 0.00 0.00 0.00 0.01 0.04 0.04 0.05 0.07 0.08 0.10 0.05 0.00 0.00 0.00 0.00 0.00 0.00 0.00 0.00 0.00 0.00 0.00 0.00 0.00 0.00 0.00 0.00 0.00
0.00 0.00 0.00 0.00 0.00 0.00 0.00 0.00 0.00 0.00 0.00 0.00 0.00 0.00 0.00 0.00 0.00 0.00 0.00 0.00 0.00 0.00 0.00 0.00 0.00 0.00 0.03 0.05 0.05 0.04 0.07 0.09 0.12 0.09 0.03 0.02 0.01 0.03 0.00 0.00 0.00 0.00 0.00 0.00 0.00 0.00 0.00 0.00 0.00 0.00 0.00 0.00 0.00 0.00
0.00 0.00 0.00 0.00 0.00 0.00 0.00 0.00 0.00 0.00 0.00 0.00 0.00 0.00 0.00 0.00 0.00 0.00 0.00 0.01 0.01 0.00 0.01 0.01 0.01 0.02 0.01 0.03 0.01 0.01 0.02 0.05 0.07 0.05 0.02 0.01 0.01 0.02 0.00 0.00 0.00 0.00 0.00 0.00 0.00 0.00 0.00 0.00 0.00 0.00 0.00 0.00 0.00 0.00
0.00 0.00 0.00 0.00 0.00 0.00 0.00 0.00 0.00 0.00 0.00 0.00 0.00 0.00 0.00 0.00 0.01 0.01 0.01 0.02 0.04 0.04 0.06 0.03 0.02 0.01 0.00 0.00 0.00 0.00 0.00 0.00 0.00 0.00 0.00 0.00 0.00 0.00 0.00 0.00 0.00 0.00 0.00 0.00 0.00 0.00 0.00 0.00 0.00 0.00 0.00 0.00 0.00 0.00
0.00 0.00 0.00 0.00 0.00 0.00 0.00 0.00 0.00 0.00 0.00 0.00 0.00 0.00 0.00 0.01 0.03 0.03 0.03 0.03 0.04 0.04 0.02 0.01 0.00 0.00 0.00 0.00 0.00 0.00 0.00 0.00 0.00 0.00 0.00 0.00 0.00 0.00 0.00 0.00 0.00 0.00 0.00 0.00 0.00 0.00 0.00 0.00 0.00 0.00 0.00 0.00 0.00 0.00
0.00 0.00 0.00 0.00 0.00 0.00 0.00 0.00 0.00 0.00 0.00 0.00 0.00 0.00 0.00 0.01 0.02 0.05 0.06 0.05 0.02 0.00 0.00 0.00 0.00 0.00 0.00 0.00 0.00 0.00 0.00 0.00 0.00 0.00 0.00 0.00 0.00 0.00 0.00 0.00 0.00 0.00 0.00 0.00 0.00 0.00 0.00 0.00 0.00 0.00 0.00 0.00 0.00 0.00
0.00 0.00 0.00 0.00 0.00 0.00 0.00 0.00 0.00 0.00 0.00 0.00 0.00 0.01 0.03 0.03 0.03 0.05 0.04 0.00 0.00 0.00 0.00 0.00 0.00 0.00 0.00 0.00 0.00 0.00 0.00 0.00 0.00 0.00 0.00 0.00 0.00 0.00 0.00 0.00 0.00 0.00 0.00 0.00 0.00 0.00 0.00 0.00 0.00 0.00 0.00 0.00 0.00 0.00
0.00 0.00 0.00 0.00 0.00 0.00 0.00 0.00 0.00 0.00 0.00 0.00 0.01 0.02 0.01 0.01 0.00 0.00 0.00 0.00 0.00 0.00 0.00 0.00 0.00 0.00 0.00 0.00 0.00 0.00 0.00 0.00 0.00 0.00 0.00 0.00 0.00 0.00 0.00 0.00 0.00 0.00 0.00 0.00 0.00 0.00 0.00 0.00 0.00 0.00 0.00 0.00 0.00 0.00
0.00 0.00 0.00 0.00 0.00 0.00 0.00 0.00 0.00 0.00 0.00 0.00 0.01 0.00 0.00 0.00 0.00 0.00 0.00 0.00 0.00 0.00 0.00 0.00 0.00 0.00 0.00 0.00 0.00 0.00 0.00 0.00 0.00 0.00 0.00 0.00 0.00 0.00 0.00 0.00 0.00 0.00 0.00 0.00 0.00 0.00 0.00 0.00 0.00 0.00 0.00 0.00 0.00 0.00
0.05 0.00 0.00 0.00 0.00 0.00 0.00 0.00 0.00 0.00 0.00 0.00 0.00 0.00 0.00 0.01 0.00 0.00 0.00 0.00 0.00 0.00 0.00 0.00 0.00 0.00 0.00 0.00 0.00 0.00 0.00 0.00 0.00 0.00 0.00 0.00 0.00 0.00 0.00 0.00 0.00 0.00 0.00 0.00 0.00 0.00 0.00 0.00 0.00 0.00 0.00 0.00 0.00 0.00
0.00 0.00 0.02 0.02 0.03 0.00 0.00 0.00 0.00 0.00 0.00 0.00 0.00 0.01 0.01 0.01 0.01 0.00 0.00 0.00 0.00 0.00 0.00 0.00 0.00 0.00 0.00 0.00 0.00 0.00 0.00 0.00 0.00 0.00 0.00 0.00 0.00 0.00 0.00 0.00 0.00 0.00 0.00 0.00 0.00 0.00 0.00 0.00 0.00 0.00 0.00 0.00 0.00 0.00
0.01 0.04 0.08 0.08 0.03 0.00 0.00 0.02 0.04 0.01 0.00 0.00 0.01 0.01 0.00 0.01 0.01 0.02 0.01 0.00 0.00 0.00 0.00 0.00 0.00 0.00 0.00 0.00 0.00 0.00 0.00 0.00 0.00 0.00 0.00 0.00 0.00 0.00 0.00 0.00 0.00 0.00 0.00 0.00 0.00 0.00 0.00 0.00 0.00 0.00 0.00 0.00 0.00 0.00
0.00 0.00 0.01 0.02 0.02 0.04 0.03 0.07 0.09 0.01 0.00 0.00 0.01 0.01 0.01 0.01 0.02 0.04 0.01 0.00 0.00 0.00 0.00 0.00 0.00 0.00 0.00 0.00 0.00 0.00 0.00 0.00 0.00 0.00 0.00 0.00 0.00 0.00 0.00 0.00 0.00 0.00 0.00 0.00 0.00 0.00 0.00 0.00 0.00 0.00 0.00 0.00 0.00 0.00
MSLP
1017.30 1016.56 1015.84 1015.23 1014.71 1014.25 1013.82 1013.44 1013.10 1012.86 1012.58 1012.39 1012.28 1012.29 1012.25 1012.25 1012.30 1012.80 1012.63 1012.79 1012.95 1012.04 1010.54 1009.46 1008.25 1007.70 1007.61 1007.36 1006.42 1005.05 1004.32 1003.43 1002.73 1001.15 998.94 996.65 993.72 991.67 990.73 990.54 991.50 991.71 991.74 991.32 991.59 992.40 993.22 994.70 994.38 993.62 994.13 993.12 992.14 991.12
1016.73 1015.92 1015.15 1014.50 1013.95 1013.49 1013.08 1012.78 1012.50 1012.27 1012.04 1011.94 1011.85 1011.84 1011.72 1011.76 1011.83 1012.12 1012.23 1011.97 1012.17 1012.17 1010.39 1008.72 1008.06 1007.49 1006.99 1006.79 1006.78 1006.46 1005.40 1004.91 1004.61 1002.90 1000.99 999.32 995.81 993.24 991.29 990.73 991.20 991.50 991.10 991.30 992.84 993.67 995.22 995.50 995.52 995.26 994.63 994.66 993.58 992.40
1016.18 1015.42 1014.54 1013.80 1013.24 1012.78 1012.50 1012.26 1012.08 1011.86 1011.73 1011.58 1011.61 1011.55 1011.41 1011.43 1011.56 1011.71 1011.69 1011.81 1011.86 1011.33 1009.51 1006.95 1005.19 1004.46 1005.07 1005.67 1006.18 1006.21 1005.50 1005.80 1005.57 1004.67 1003.51 1001.53 998.79 995.77 993.36 991.55 991.84 993.29 993.00 993.11 994.77 995.99 996.16 996.38 996.63 996.14 995.15 995.98 995.50 993.89
1015.70 1014.96 1014.05 1013.49 1013.15 1012.79 1012.43 1012.14 1011.88 1011.62 1011.53 1011.50 1011.44 1011.32 1011.25 1011.14 1011.21 1011.22 1011.16 1011.05 1011.15 1010.78 1008.86 1004.90 1003.73 1003.71 1003.69 1003.78 1004.63 1005.08 1005.34 1005.99 1006.33 1005.67 1004.19 1002.78 1000.29 997.67 996.40 995.58 995.62 996.47 995.78 994.99 995.67 996.72 997.21 997.67 997.22 997.34 997.07 997.25 996.98 995.73
1015.34 1014.83 1014.41 1013.90 1013.41 1012.92 1012.47 1012.15 1011.84 1011.68 1011.58 1011.48 1011.37 1011.17 1011.05 1011.07 1011.02 1010.80 1010.54 1010.22 1010.44 1010.59 1008.12 1005.43 1003.90 1002.40 1001.97 1002.83 1003.28 1004.44 1005.25 1006.04 1006.59 1005.73 1004.40 1003.22 1001.59 1000.14 998.71 998.47 999.16 999.42 998.51 996.45 995.73 996.89 997.25 998.79 998.70 998.90 998.40 998.67 998.34 997.23
1015.28 1014.76 1014.44 1014.02 1013.57 1013.03 1012.51 1012.23 1012.02 1011.84 1011.66 1011.50 1011.31 1011.09 1010.92 1010.87 1010.77 1010.36 1009.13 1010.34 1010.29 1009.97 1009.42 1006.48 1003.76 1002.59 1001.94 1001.97 1002.74 1003.79 1004.83 1005.45 1006.29 1005.30 1004.32 1003.61 1002.39 1002.10 999.36 1000.12 1001.00 1000.43 999.83 999.12 997.82 998.55 999.05 1000.01 1000.49 1000.25 1000.28 1000.31 999.53 998.45
1015.32 1014.93 1014.57 1014.16 1013.72 1013.26 1012.83 1012.45 1012.14 1011.92 1011.71 1011.46 1011.20 1011.02 1010.88 1010.87 1010.66 1010.05 1009.74 1010.17 1010.29 1010.47 1010.01 1007.38 1004.38 1002.20 1002.00 1002.16 1002.97 1003.73 1004.92 1005.01 1004.91 1004.84 1004.08 1003.20 1002.60 1000.51 1000.99 1001.72 1001.73 1001.17 1000.19 999.58 999.10 999.56 1000.53 1001.52 1002.29 1002.20 1001.25 1000.77 1000.01 999.73
1015.51 1015.13 1014.70 1014.24 1013.78 1013.33 1012.91 1012.49 1012.16 1011.93 1011.64 1011.29 1010.94 1010.74 1010.67 1010.48 1010.46 1010.09 1009.64 1009.88 1010.23 1010.34 1009.53 1007.67 1004.99 1002.36 1001.45 1001.66 1002.27 1003.65 1004.33 1004.85 1004.37 1003.55 1003.79 1003.21 1001.90 1001.36 1002.37 1002.90 1002.37 1002.14 1001.69 1001.63 1001.44 1001.31 1002.00 1003.00 1003.35 1002.68 1002.06 1001.98 1000.56 1000.51
1015.71 1015.23 1014.74 1014.30 1013.83 1013.38 1013.00 1012.58 1012.21 1011.77 1011.29 1010.81 1010.50 1010.14 1009.82 1009.62 1009.14 1009.44 1009.40 1009.37 1009.89 1010.06 1009.08 1007.53 1004.48 1001.84 1000.56 1000.64 1002.02 1003.02 1003.55 1002.92 1002.11 1002.61 1003.09 1003.10 1002.83 1003.08 1003.57 1003.55 1003.10 1002.78 1002.78 1003.13 1002.91 1003.09 1003.41 1003.24 1003.85 1003.45 1002.62 1001.97 1001.02 1001.44
1015.86 1015.34 1014.82 1014.36 1013.88 1013.48 1013.08 1012.59 1012.00 1011.33 1010.69 1010.24 1009.79 1008.94 1008.06 1008.29 1009.00 1009.19 1009.19 1009.06 1009.11 1008.94 1008.67 1006.77 1003.65 1001.58 1000.81 1000.23 1001.44 1002.68 1001.81 1001.35 1001.83 1002.62 1003.08 1003.51 1003.69 1004.03 1004.05 1004.06 1003.90 1003.77 1003.73 1003.75 1004.05 1004.16 1003.97 1003.69 1003.13 1002.88 1002.34 1001.88 1001.53 1001.32
1016.10 1015.53 1014.96 1014.42 1013.93 1013.50 1013.02 1012.58 1012.05 1011.11 1010.21 1009.89 1009.71 1009.33 1008.33 1008.26 1007.93 1007.54 1007.18 1007.03 1007.08 1007.35 1007.35 1005.52 1003.27 1001.90 1001.03 1000.43 1000.11 1000.35 1000.11 1000.08 1001.17 1002.06 1002.50 1003.86 1004.39 1004.76 1004.85 1004.48 1004.14 1003.86 1003.83 1004.03 1003.80 1004.16 1004.03 1003.58 1003.56 1002.60 1001.98 1002.04 1001.80 1001.72
1016.21 1015.62 1015.11 1014.50 1014.01 1013.55 1012.99 1012.48 1012.04 1011.35 1010.96 1011.19 1011.29 1010.84 1009.50 1007.77 1006.85 1006.72 1005.67 1005.47 1005.18 1005.56 1005.30 1004.10 1002.59 1001.61 1000.68 1000.21 999.42 999.15 998.63 998.99 1000.36 1001.56 1002.68 1004.52 1005.55 1005.45 1005.20 1004.71 1004.59 1003.94 1003.34 1003.30 1003.24 1003.42 1003.59 1003.13 1002.82 1002.57 1002.11 1002.01 1001.99 1001.86
1016.09 1015.59 1015.09 1014.55 1014.00 1013.46 1012.79 1012.20 1011.92 1011.50 1010.85 1010.46 1010.38 1009.70 1008.87 1007.73 1007.20 1006.47 1005.86 1005.48 1005.27 1004.56 1004.19 1003.54 1002.13 1000.99 999.94 999.51 998.71 998.35 998.32 999.64 1000.02 1001.80 1004.22 1005.39 1005.79 1005.77 1005.54 1005.03 1004.27 1003.76 1003.64 1003.31 1003.02 1002.98 1002.92 1002.90 1002.72 1002.46 1002.24 1002.15 1002.32 1002.42
1015.92 1015.44 1014.88 1014.32 1013.74 1013.08 1012.40 1011.75 1011.31 1011.00 1010.63 1010.12 1010.15 1009.87 1009.60 1008.58 1007.91 1006.85 1006.14 1005.61 1005.55 1004.85 1004.22 1003.45 1002.01 1000.71 1000.05 999.23 999.17 998.72 999.42 999.68 1001.25 1003.50 1004.97 1005.89 1006.07 1005.95 1005.48 1004.93 1004.14 1003.84 1003.52 1003.09 1002.96 1003.00 1002.90 1002.90 1002.88 1002.90 1002.73 1002.81 1002.60 1002.59
1015.69 1015.11 1014.54 1013.89 1013.38 1012.82 1012.15 1011.62 1011.34 1010.85 1010.56 1010.69 1010.96 1010.57 1009.67 1008.84 1007.70 1006.35 1005.59 1004.99 1004.33 1004.02 1004.40 1002.76 1001.61 1000.81 1000.19 1000.39 1000.73 1000.71 1000.75 1002.38 1003.96 1005.00 1005.74 1006.23 1006.25 1005.72 1005.29 1005.14 1004.67 1004.42 1004.13 1003.70 1003.56 1003.29 1003.16 1003.30 1003.10 1003.17 1003.13 1003.17 1002.96 1003.13
1015.44 1014.67 1014.02 1013.64 1013.11 1012.50 1011.87 1011.19 1010.88 1010.76 1010.52 1010.36 1010.39 1009.71 1008.89 1007.56 1006.39 1005.46 1004.99 1004.37 1004.11 1003.55 1002.98 1002.26 1001.28 1001.01 1001.46 1001.94 1001.96 1002.82 1003.48 1004.54 1005.59 1005.98 1006.23 1006.38 1006.31 1005.93 1005.65 1005.37 1005.26 1004.84 1004.37 1003.98 1003.84 1003.64 1003.64 1003.60 1003.44 1003.38 1003.38 1003.55 1003.46 1003.47
1015.50 1014.67 1014.44 1013.67 1012.92 1012.20 1011.73 1010.88 1010.24 1010.03 1009.64 1009.59 1009.51 1008.97 1008.40 1007.50 1006.89 1005.76 1005.25 1004.81 1004.32 1002.88 1002.43 1002.13 1002.49 1002.91 1002.76 1003.34 1004.52 1005.76 1005.94 1006.06 1005.91 1006.03 1006.15 1006.29 1006.19 1006.03 1005.64 1005.32 1004.97 1004.71 1004.41 1004.25 1003.97 1003.87 1003.99 1003.91 1003.54 1003.38 1003.47 1003.71 1003.69 1003.98
1015.10 1014.55 1014.47 1014.03 1013.09 1011.78 1011.13 1010.78 1010.32 1009.93 1009.80 1009.81 1009.28 1009.13 1008.54 1007.67 1007.05 1006.35 1005.88 1005.22 1004.61 1003.91 1003.54 1003.78 1003.77 1004.13 1004.71 1005.68 1006.25 1006.92 1006.56 1006.46 1006.37 1006.09 1005.88 1006.11 1006.21 1005.86 1005.62 1005.40 1005.15 1004.93 1004.76 1004.57 1004.37 1004.27 1004.09 1003.91 1003.23 1003.13 1003.56 1003.79 1003.55 1003.27
1015.69 1015.21 1014.74 1014.16 1013.59 1012.79 1011.52 1011.08 1011.15 1010.40 1010.27 1010.30 1010.02 1009.28 1008.63 1007.72 1007.56 1007.02 1006.20 1005.74 1005.38 1004.91 1004.45 1004.56 1005.18 1006.17 1006.90 1007.33 1007.20 1007.00 1006.70 1006.67 1006.45 1006.08 1006.15 1006.25 1006.07 1005.89 1005.80 1005.49 1005.27 1005.08 1004.98 1004.85 1004.98 1004.81 1004.56 1004.36 1004.04 1003.82 1003.64 1003.52 1003.23 1003.14
1015.29 1014.99 1014.62 1014.00 1013.51 1012.50 1011.71 1011.69 1011.62 1011.04 1010.78 1010.90 1010.24 1009.72 1009.10 1008.65 1008.02 1007.33 1007.04 1006.34 1005.83 1005.62 1006.10 1006.85 1007.59 1008.05 1008.14 1008.28 1008.09 1007.46 1007.12 1006.87 1006.42 1006.15 1006.18 1006.34 1006.30 1006.06 1006.01 1005.80 1005.55 1005.41 1005.12 1005.35 1005.50 1005.44 1004.69 1004.38 1004.26 1004.20 1004.19 1004.43 1003.99 1003.49
1014.87 1014.49 1014.23 1013.70 1013.08 1012.80 1012.73 1012.49 1011.87 1012.23 1011.88 1011.07 1010.73 1010.33 1009.74 1009.13 1008.73 1008.50 1008.27 1007.66 1007.47 1007.94 1008.52 1009.26 1009.40 1009.44 1009.33 1008.93 1008.60 1008.14 1007.87 1007.70 1007.52 1007.38 1007.29 1007.07 1006.86 1006.42 1006.07 1006.02 1005.89 1005.70 1005.66 1005.61 1005.45 1005.45 1005.32 1005.15 1005.31 1005.11 1004.83 1004.81 1004.79 1004.34
1015.37 1015.32 1014.42 1013.88 1013.38 1013.06 1012.88 1013.16 1012.91 1012.56 1012.02 1011.43 1011.00 1010.74 1010.42 1010.23 1010.25 1010.67 1010.80 1009.98 1010.10 1010.64 1010.68 1010.61 1010.48 1010.17 1009.52 1009.01 1008.67 1008.51 1008.49 1008.13 1007.89 1007.76 1007.58 1007.32 1006.94 1006.93 1006.51 1006.64 1006.53 1006.56 1006.82 1006.84 1006.56 1006.29 1006.20 1006.33 1006.48 1006.18 1005.73 1005.61 1005.30 1005.06
1015.93 1015.48 1014.66 1014.13 1013.66 1013.50 1013.65 1013.08 1012.50 1012.38 1011.97 1011.81 1011.27 1011.26 1011.61 1011.66 1011.55 1011.75 1011.67 1011.77 1011.74 1011.76 1011.55 1011.07 1010.67 1010.47 1010.06 1009.75 1009.29 1009.11 1008.85 1008.47 1008.18 1007.91 1007.58 1007.23 1007.33 1007.40 1007.31 1007.36 1007.34 1007.30 1007.17 1007.28 1007.22 1007.02 1006.94 1007.18 1006.72 1006.66 1006.26 1005.98 1005.69 1005.39
1016.40 1015.62 1014.77 1014.40 1014.00 1013.81 1013.44 1012.86 1012.76 1012.57 1012.32 1012.21 1012.17 1012.06 1011.99 1011.97 1012.01 1011.90 1012.37 1012.38 1012.30 1011.85 1011.51 1011.23 1010.69 1010.06 1009.86 1009.70 1009.57 1009.73 1009.35 1008.77 1008.31 1008.17 1008.20 1007.56 1007.43 1007.93 1007.85 1007.67 1007.68 1007.89 1008.14 1007.80 1007.60 1007.55 1007.34 1007.24 1007.37 1006.81 1006.64 1006.40 1006.12 1005.94
1016.24 1016.14 1015.45 1015.01 1014.40 1013.78 1013.18 1012.81 1012.67 1012.36 1012.25 1012.30 1011.98 1011.72 1011.67 1012.07 1011.96 1012.77 1013.45 1013.19 1012.64 1012.32 1011.91 1011.35 1011.08 1010.78 1010.54 1010.48 1010.42 1010.41 1010.47 1009.92 1009.39 1008.68 1009.00 1008.64 1008.32 1007.86 1007.86 1008.00 1008.01 1008.38 1008.64 1008.46 1008.21 1008.08 1007.85 1007.66 1007.51 1007.37 1007.25 1007.10 1007.20 1006.94
1015.60 1015.32 1015.12 1014.50 1014.17 1013.76 1013.41 1012.80 1012.76 1012.75 1012.51 1012.14 1012.06 1012.01 1012.00 1011.76 1011.97 1013.35 1014.26 1014.47 1013.39 1013.01 1012.68 1012.27 1011.79 1011.64 1011.77 1011.93 1011.77 1011.61 1011.46 1011.23 1010.70 1010.00 1009.95 1009.77 1009.51 1009.36 1009.13 1008.91 1008.71 1008.79 1009.29 1009.43 1009.06 1008.73 1008.41 1008.16 1007.99 1007.96 1007.78 1007.64 1007.55 1007.56
1014.71 1014.33 1014.32 1014.65 1014.36 1013.99 1013.29 1013.25 1013.17 1012.89 1012.26 1011.89 1011.85 1011.74 1011.82 1012.16 1013.89 1015.27 1015.43 1015.24 1014.88 1014.72 1014.21 1013.58 1013.15 1012.83 1012.77 1012.85 1012.88 1012.83 1012.55 1012.03 1011.55 1011.21 1010.84 1010.75 1010.56 1010.69 1010.68 1010.54 1010.27 1010.49 1010.62 1009.98 1009.64 1009.28 1008.93 1008.64 1008.33 1008.22 1008.09 1007.99 1007.85 1007.65
1014.19 1013.97 1013.54 1013.49 1013.53 1013.44 1012.92 1012.45 1012.30 1012.03 1011.83 1012.02 1012.15 1012.51 1013.50 1014.25 1015.27 1015.84 1016.05 1016.18 1015.92 1015.67 1014.91 1014.60 1014.31 1014.10 1013.77 1013.62 1013.58 1013.48 1013.25 1012.95 1012.49 1012.14 1011.54 1010.88 1011.13 1011.31 1011.84 1011.55 1011.17 1011.34 1010.79 1010.42 1010.51 1009.96 1009.72 1009.46 1009.21 1008.97 1008.81 1008.73 1008.60 1008.63
1013.17 1012.78 1013.01 1012.37 1012.52 1012.53 1012.34 1012.13 1012.00 1012.22 1012.45 1012.31 1012.75 1013.83 1015.15 1015.71 1015.80 1015.87 1016.01 1016.09 1016.15 1016.17 1016.24 1016.22 1015.70 1015.00 1014.69 1014.35 1014.13 1013.92 1014.09 1014.04 1013.73 1013.28 1012.87 1012.47 1012.41 1012.63 1012.83 1012.49 1011.97 1011.51 1011.13 1010.85 1011.45 1011.23 1011.17 1011.00 1010.74 1010.34 1009.93 1009.65 1009.34 1009.09
1011.82 1012.07 1011.73 1011.47 1011.45 1011.94 1012.32 1012.34 1012.92 1013.30 1013.26 1013.77 1014.79 1015.28 1015.86 1016.37 1016.78 1016.76 1016.64 1016.72 1016.80 1016.71 1016.46 1016.02 1015.91 1015.63 1015.21 1014.98 1014.83 1014.76 1015.03 1015.44 1015.45 1015.29 1014.85 1014.31 1014.11 1013.98 1013.76 1013.36 1012.98 1012.60 1012.26 1011.92 1011.48 1011.15 1010.97 1010.94 1010.52 1010.18 1010.09 1009.97 1009.83 1009.88
1011.60 1011.35 1011.11 1011.11 1011.40 1012.16 1012.61 1013.28 1013.74 1014.34 1015.26 1015.64 1015.98 1016.16 1016.47 1016.85 1017.14 1017.16 1016.86 1016.62 1016.23 1016.00 1016.00 1015.95 1015.95 1016.39 1016.17 1016.04 1016.18 1016.18 1016.04 1016.50 1016.79 1016.80 1016.98 1016.21 1015.62 1015.29 1014.96 1014.37 1013.93 1013.48 1013.07 1012.72 1012.27 1011.92 1011.80 1011.69 1011.31 1010.92 1010.85 1010.82 1010.83 1010.75
1011.02 1010.99 1010.88 1010.66 1011.64 1012.62 1012.87 1013.28 1014.34 1015.19 1015.69 1015.87 1016.04 1016.31 1016.39 1016.08 1015.73 1016.54 1017.06 1016.35 1016.06 1016.12 1016.81 1016.68 1016.83 1017.09 1017.34 1017.10 1017.20 1017.26 1017.65 1017.20 1017.56 1017.92 1017.98 1017.66 1017.24 1016.74 1015.86 1015.34 1014.90 1014.45 1014.03 1013.49 1013.08 1012.69 1012.53 1012.30 1012.03 1012.11 1011.90 1011.65 1011.40 1011.15
1010.55 1010.28 1010.36 1010.59 1011.22 1011.74 1012.19 1012.94 1013.68 1015.10 1015.55 1015.63 1015.20 1015.22 1015.25 1015.34 1015.91 1016.89 1017.07 1017.15 1017.20 1017.02 1017.13 1017.36 1017.52 1017.78 1018.08 1018.03 1018.11 1017.77 1017.74 1017.67 1018.26 1018.51 1018.57 1018.56 1018.29 1017.80 1016.81 1016.35 1015.90 1015.28 1014.69 1014.01 1013.62 1013.19 1012.94 1012.89 1012.73 1012.49 1012.22 1012.12 1011.82 1011.51
Thickness
5397 5389 5383 5384 5386 5390 5394 5397 5400 5399 5399 5399 5397 5396 5395 5393 5392 5390 5393 5392 5392 5400 5416 5434 5452 5462 5467 5473 5486 5514 5529 5542 5557 5576 5604 5631 5662 5690 5703 5709 5696 5698 5701 5715 5734 5717 5715 5723 5737 5740 5742 5762 5770 5781
5389 5386 5385 5386 5389 5392 5395 5397 5397 5397 5397 5396 5395 5394 5394 5392 5392 5390 5390 5394 5394 5394 5413 5435 5447 5459 5470 5479 5485 5494 5515 5526 5533 5559 5580 5597 5638 5670 5693 5692 5711 5699 5722 5728 5716 5720 5710 5722 5722 5736 5745 5744 5757 5770
5390 5389 5389 5392 5394 5396 5396 5396 5396 5397 5396 5395 5393 5392 5393 5393 5392 5391 5393 5392 5394 5398 5419 5450 5470 5483 5485 5487 5489 5495 5513 5518 5527 5546 5557 5580 5605 5647 5665 5694 5701 5694 5711 5709 5698 5690 5698 5708 5712 5724 5735 5732 5740 5760
5395 5394 5396 5396 5395 5395 5396 5396 5396 5396 5394 5393 5392 5392 5393 5394 5393 5394 5396 5398 5399 5403 5423 5468 5482 5486 5495 5501 5502 5502 5509 5513 5516 5531 5555 5568 5594 5635 5641 5659 5664 5659 5680 5691 5685 5685 5690 5692 5701 5708 5714 5718 5722 5741
5403 5400 5396 5394 5394 5394 5395 5395 5395 5394 5393 5393 5393 5394 5395 5395 5396 5398 5402 5406 5406 5408 5441 5464 5481 5500 5508 5506 5509 5506 5509 5511 5511 5530 5552 5566 5589 5609 5630 5637 5626 5633 5645 5684 5684 5687 5689 5676 5682 5686 5693 5696 5704 5718
5407 5403 5398 5396 5394 5395 5396 5396 5395 5394 5394 5394 5395 5397 5399 5399 5401 5406 5421 5406 5411 5418 5425 5451 5486 5499 5508 5513 5512 5512 5513 5519 5514 5533 5551 5564 5583 5589 5624 5617 5616 5629 5642 5654 5670 5671 5670 5662 5661 5671 5671 5674 5688 5705
5408 5403 5399 5397 5397 5397 5397 5397 5397 5396 5397 5398 5400 5402 5403 5404 5406 5415 5424 5415 5416 5419 5421 5449 5482 5507 5511 5513 5513 5516 5513 5523 5533 5540 5553 5564 5580 5603 5607 5603 5611 5625 5642 5653 5660 5658 5647 5641 5633 5638 5658 5669 5678 5686
5408 5404 5402 5401 5401 5401 5401 5401 5401 5401 5402 5405 5408 5410 5411 5413 5416 5421 5423 5422 5422 5425 5434 5454 5477 5510 5522 5519 5521 5519 5519 5522 5537 5554 5556 5567 5579 5599 5590 5595 5608 5615 5623 5623 5631 5638 5632 5625 5623 5631 5644 5650 5666 5670
5410 5408 5407 5407 5406 5406 5406 5406 5407 5408 5411 5415 5418 5421 5425 5429 5433 5431 5433 5436 5434 5435 5437 5454 5488 5513 5533 5533 5526 5525 5529 5545 5564 5561 5559 5567 5575 5579 5582 5589 5599 5609 5610 5603 5609 5607 5615 5620 5613 5621 5634 5641 5653 5651
5415 5414 5413 5413 5413 5412 5411 5412 5415 5419 5424 5428 5432 5442 5452 5449 5441 5441 5443 5446 5454 5456 5453 5467 5509 5520 5533 5543 5531 5524 5548 5557 5554 5559 5561 5563 5564 5573 5579 5583 5590 5594 5596 5598 5594 5591 5600 5608 5620 5627 5633 5641 5646 5653
5421 5420 5419 5420 5420 5420 5420 5421 5424 5430 5436 5441 5444 5447 5455 5454 5463 5471 5477 5479 5473 5466 5463 5488 5515 5521 5535 5539 5549 5556 5560 5570 5560 5563 5567 5558 5561 5567 5571 5577 5582 5590 5597 5597 5593 5596 5599 5607 5611 5624 5634 5636 5644 5647
5429 5428 5427 5428 5428 5428 5430 5432 5433 5438 5441 5440 5438 5441 5453 5472 5482 5482 5499 5502 5506 5500 5501 5511 5523 5532 5541 5550 5561 5571 5577 5584 5568 5574 5568 5555 5553 5559 5566 5570 5569 5581 5596 5599 5602 5599 5599 5610 5616 5622 5632 5634 5638 5644
5438 5437 5437 5438 5438 5439 5442 5445 5443 5445 5450 5454 5457 5465 5472 5484 5480 5487 5496 5504 5503 5513 5516 5520 5532 5544 5557 5564 5574 5581 5581 5569 5587 5568 5548 5550 5551 5556 5562 5568 5578 5586 5589 5594 5600 5605 5608 5613 5619 5624 5628 5634 5633 5634
5450 5449 5450 5451 5451 5454 5456 5458 5460 5459 5463 5468 5464 5463 5459 5471 5479 5491 5498 5504 5506 5513 5516 5524 5539 5553 5563 5571 5575 5576 5580 5586 5569 5550 5545 5546 5550 5555 5563 5569 5580 5584 5590 5598 5601 5603 5607 5610 5613 5617 5621 5623 5627 5628
5462 5463 5464 5465 5465 5467 5469 5470 5469 5471 5474 5467 5459 5456 5471 5480 5491 5505 5513 5516 5523 5525 5518 5536 5550 5560 5568 5564 5565 5571 5573 5553 5545 5542 5543 5545 5550 5559 5567 5568 5574 5579 5584 5589 5592 5598 5602 5603 5607 5610 5613 5615 5620 5618
5474 5475 5476 5476 5476 5478 5480 5481 5482 5482 5482 5482 5479 5487 5491 5503 5512 5521 5523 5528 5532 5536 5543 5552 5560 5560 5557 5556 5561 5555 5552 5540 5536 5539 5545 5548 5551 5558 5563 5568 5570 5576 5581 5586 5589 5593 5594 5595 5599 5602 5605 5604 5606 5607
5480 5484 5481 5484 5487 5489 5490 5494 5497 5498 5500 5496 5495 5502 5503 5509 5511 5522 5526 5529 5536 5550 5551 5557 5547 5544 5561 5552 5539 5531 5532 5537 5545 5547 5549 5551 5554 5556 5563 5568 5572 5576 5580 5583 5587 5589 5589 5591 5596 5597 5596 5596 5598 5596
5490 5489 5487 5488 5493 5499 5502 5503 5504 5505 5500 5500 5502 5501 5505 5512 5516 5521 5525 5532 5537 5544 5548 5541 5550 5542 5541 5534 5531 5527 5537 5544 5545 5552 5557 5556 5555 5560 5564 5566 5569 5573 5575 5578 5582 5584 5586 5587 5594 5596 5592 5591 5594 5597
5489 5489 5491 5493 5494 5498 5505 5507 5503 5505 5504 5501 5502 5508 5511 5520 5519 5523 5530 5532 5535 5541 5548 5545 5540 5533 5529 5529 5534 5540 5546 5547 5549 5556 5557 5556 5559 5562 5563 5567 5569 5571 5572 5574 5572 5573 5576 5579 5581 5584 5586 5588 5589 5591
5497 5496 5497 5499 5500 5507 5511 5507 5505 5508 5506 5503 5508 5509 5513 5516 5523 5530 5530 5537 5540 5542 5537 5531 5525 5525 5528 5530 5534 5541 5546 5550 5555 5557 5557 5557 5558 5561 5560 5562 5565 5566 5569 5566 5563 5560 5571 5573 5574 5574 5575 5572 5574 5579
5506 5505 5504 5505 5509 5509 5507 5506 5509 5502 5502 5509 5511 5511 5516 5523 5525 5526 5527 5536 5534 5529 5526 5521 5522 5522 5523 5529 5533 5539 5541 5543 5544 5546 5546 5549 5552 5556 5560 5560 5561 5562 5561 5560 5560 5559 5559 5560 5558 5560 5561 5561 5561 5565
5509 5504 5509 5511 5513 5513 5512 5506 5506 5507 5511 5514 5516 5518 5519 5519 5517 5512 5509 5518 5514 5510 5511 5512 5515 5519 5526 5532 5535 5537 5536 5540 5541 5541 5539 5543 5547 5546 5550 5549 5548 5546 5542 5541 5543 5544 5544 5543 5541 5542 5545 5546 5548 5550
5510 5510 5515 5516 5517 5509 5504 5514 5516 5516 5516 5517 5523 5518 5512 5510 5513 5513 5510 5506 5509 5510 5512 5517 5519 5521 5524 5527 5532 5533 5534 5536 5537 5539 5543 5545 5543 5540 5539 5537 5536 5534 5534 5532 5532 5532 5531 5527 5531 5530 5532 5534 5535 5536
5513 5518 5521 5521 5522 5518 5522 5523 5523 5522 5522 5520 5514 5514 5517 5520 5522 5522 5515 5516 5515 5519 5521 5522 5526 5530 5531 5531 5530 5527 5530 5535 5537 5537 5535 5539 5538 5531 5531 5530 5528 5524 5520 5521 5521 5520 5520 5519 5514 5519 5519 5518 5519 5519
5520 5517 5518 5512 5525 5529 5531 5532 5530 5532 5529 5527 5528 5531 5532 5528 5529 5519 5510 5514 5518 5520 5522 5525 5525 5525 5525 5524 5524 5522 5520 5523 5525 5529 5524 5526 5526 5529 5526 5522 5519 5513 5509 5507 5506 5505 5504 5504 5503 5502 5500 5500 5497 5497
5527 5534 5525 5537 5536 5535 5535 5539 5535 5530 5529 5532 5532 5533 5533 5536 5537 5520 5509 5505 5516 5517 5517 5517 5518 5517 5512 5510 5509 5508 5507 5508 5509 5512 5511 5511 5510 5508 5506 5505 5504 5500 5494 5489 5489 5489 5489 5488 5486 5484 5483 5481 5478 5479
5547 5549 5544 5534 5533 5533 5539 5535 5532 5530 5535 5538 5539 5539 5539 5536 5515 5497 5496 5499 5501 5500 5502 5505 5505 5505 5503 5500 5498 5496 5496 5497 5497 5496 5495 5492 5491 5486 5483 5480 5479 5475 5469 5471 5471 5470 5470 5469 5468 5466 5464 5462 5460 5459
5551 5548 5551 5549 5543 5541 5542 5545 5543 5544 5544 5542 5539 5532 5521 5514 5501 5494 5491 5488 5488 5487 5494 5494 5493 5492 5491 5489 5486 5484 5482 5480 5480 5479 5479 5479 5473 5467 5458 5456 5456 5447 5450 5449 5445 5445 5445 5443 5442 5440 5437 5433 5431 5428
5559 5561 5553 5559 5552 5549 5549 5549 5549 5545 5542 5543 5536 5522 5505 5502 5502 5498 5494 5490 5485 5481 5474 5469 5473 5477 5477 5475 5472 5471 5465 5460 5457 5455 5454 5454 5450 5443 5437 5435 5435 5435 5434 5431 5418 5419 5416 5411 5410 5409 5407 5404 5403 5402
5569 5566 5564 5566 5563 5554 5550 5551 5541 5537 5536 5529 5516 5510 5503 5496 5490 5487 5484 5479 5472 5468 5468 5469 5466 5464 5463 5460 5456 5451 5443 5433 5428 5425 5425 5424 5421 5417 5413 5412 5410 5408 5405 5402 5400 5397 5395 5391 5388 5386 5383 5379 5376 5371
5570 5570 5568 5566 5561 5553 5549 5542 5538 5530 5517 5509 5504 5500 5494 5487 5482 5479 5477 5476 5475 5473 5468 5464 5459 5449 5445 5440 5433 5427 5423 5414 5405 5400 5393 5394 5393 5390 5386 5385 5383 5381 5379 5376 5374 5371 5366 5361 5359 5358 5353 5348 5343 5340
5573 5569 5567 5567 5556 5549 5547 5538 5526 5517 5511 5508 5505 5497 5495 5497 5497 5482 5472 5473 5471 5465 5450 5448 5440 5431 5423 5419 5412 5406 5396 5395 5386 5377 5371 5367 5364 5362 5363 5361 5359 5356 5354 5352 5350 5347 5343 5340 5336 5329 5326 5322 5320 5317
5579 5581 5578 5572 5562 5555 5552 5543 5535 5518 5512 5510 5514 5511 5506 5502 5489 5474 5468 5461 5455 5450 5441 5432 5423 5414 5405 5398 5391 5388 5382 5378 5367 5358 5353 5347 5343 5341 5344 5342 5339 5338 5337 5336 5333 5330 5326 5319 5314 5310 5307 5301 5299 5297